Location: Caltech
(34.1382°N, 118.1253°W)
Time: 08:41:21
(UTC-07:00)

ERBS - Visible Passes

Search period start: 26 April 2015 00:00
Search period end: 06 May 2015 00:00
Orbit: 448 x 473 km, 57.0° (Epoch: 25 April)

Date Brightness Start Highest point End Pass type
(mag) Time Alt. Az. Time Alt. Az. Time Alt. Az.
26 Apr 4.1 04:16:17 24° SE 04:16:49 25° ESE 04:19:49 10° ENE visible
27 Apr 4.9 03:43:52 17° ESE 03:43:52 17° ESE 03:45:31 10° ENE visible
27 Apr 3.6 05:17:42 15° W 05:20:04 29° NW 05:23:12 10° NNE visible
28 Apr 3.1 04:45:10 33° W 04:46:07 40° NW 04:49:28 10° NNE visible
29 Apr 2.8 04:12:32 55° NNW 04:12:32 55° NNW 04:15:39 10° NNE visible
30 Apr 4.3 03:39:48 30° NE 03:39:48 30° NE 03:41:45 10° NE visible
01 May 5.4 03:06:59 16° NE 03:06:59 16° NE 03:07:45 10° NE visible
01 May 4.8 04:40:48 11° NW 04:41:50 12° NW 04:43:13 10° NNW visible
02 May 4.7 04:07:54 15° NW 04:07:54 15° NW 04:09:51 10° N visible
03 May 5.0 03:34:56 16° N 03:34:56 16° N 03:36:14 10° N visible
04 May 5.5 03:01:53 13° N 03:01:53 13° N 03:02:28 10° NNE visible
